• In Hungary
  • List of Countries
  • For 7 days
  • Water Temperature
  • Satellite Maps
  • Weather Map
  • News
  • Weather Widgets
  • user-avatar
    Login

    Hourly Weather Mikomeseng

    Today, 13 December, Wednesday

    Time Temperature Precipitation Wind Pressure Humidity
    00:00 +23°C° 0 mm 1 mps 713 mmHg 97%
    01:00 +23°C° 0 mm 1 mps 712 mmHg 97%
    02:00 +21°C° 0 mm 0 mps 712 mmHg 98%
    03:00 +21°C° 0 mm 0 mps 712 mmHg 98%
    04:00 +20°C° 0 mm 0 mps 712 mmHg 98%
    05:00 +21°C° 0 mm 0 mps 713 mmHg 97%
    06:00 +21°C° 0 mm 0 mps 713 mmHg 97%
    07:00 +21°C° 0 mm 0 mps 713 mmHg 95%
    08:00 +23°C° 0.1 mm 0 mps 713 mmHg 87%
    09:00 +25°C° 0.1 mm 0 mps 714 mmHg 79%
    10:00 +27°C° 0.1 mm 0 mps 714 mmHg 70%
    11:00 +30°C° 0.2 mm 1 mps 713 mmHg 64%
    12:00 +31°C° 0.2 mm 1 mps 713 mmHg 58%
    13:00 +33°C° 0.2 mm 1 mps 712 mmHg 51%
    14:00 +32°C° 0.2 mm 1 mps 712 mmHg 55%
    15:00 +31°C° 0.2 mm 1 mps 711 mmHg 58%
    16:00 +30°C° 0.2 mm 1 mps 711 mmHg 62%
    17:00 +29°C° 0.1 mm 1 mps 711 mmHg 70%
    18:00 +27°C° 0.1 mm 1 mps 711 mmHg 78%
    19:00 +25°C° 0.1 mm 1 mps 711 mmHg 86%
    20:00 +25°C° 0 mm 1 mps 712 mmHg 88%
    21:00 +24°C° 0 mm 1 mps 712 mmHg 90%
    22:00 +24°C° 0 mm 1 mps 713 mmHg 92%
    23:00 +24°C° 0 mm 1 mps 712 mmHg 93%

    Tomorrow, 14 December, Thursday

    Time Temperature Precipitation Wind Pressure Humidity
    00:00 +23°C° 0 mm 1 mps 712 mmHg 94%
    01:00 +23°C° 0 mm 1 mps 712 mmHg 94%
    02:00 +23°C° 0 mm 1 mps 712 mmHg 95%
    03:00 +23°C° 0 mm 1 mps 712 mmHg 96%
    04:00 +22°C° 0 mm 1 mps 712 mmHg 97%
    05:00 +21°C° 0 mm 0 mps 712 mmHg 97%
    06:00 +21°C° 0 mm 0 mps 712 mmHg 96%
    07:00 +21°C° 0 mm 0 mps 713 mmHg 95%
    08:00 +23°C° 0 mm 0 mps 713 mmHg 87%
    09:00 +26°C° 0 mm 1 mps 714 mmHg 80%
    10:00 +28°C° 0 mm 1 mps 714 mmHg 72%
    11:00 +30°C° 0 mm 1 mps 714 mmHg 66%
    12:00 +31°C° 0 mm 1 mps 713 mmHg 60%
    13:00 +33°C° 0 mm 1 mps 713 mmHg 54%
    14:00 +32°C° 0.2 mm 1 mps 712 mmHg 59%
    15:00 +31°C° 0.2 mm 1 mps 711 mmHg 63%
    16:00 +30°C° 0.2 mm 1 mps 711 mmHg 67%
    17:00 +28°C° 0.6 mm 1 mps 711 mmHg 75%
    18:00 +26°C° 0.6 mm 1 mps 711 mmHg 83%
    19:00 +25°C° 0.6 mm 1 mps 711 mmHg 91%
    20:00 +25°C° 0.2 mm 1 mps 712 mmHg 93%
    21:00 +24°C° 0.2 mm 1 mps 712 mmHg 94%
    22:00 +24°C° 0.2 mm 1 mps 713 mmHg 95%
    23:00 +24°C° 0 mm 1 mps 712 mmHg 96%

    Day after tomorrow, 15 December, Friday

    Time Temperature Precipitation Wind Pressure Humidity
    00:00 +23°C° 0 mm 1 mps 712 mmHg 96%
    01:00 +21°C° 0 mm 0 mps 712 mmHg 97%
    02:00 +23°C° 0 mm 1 mps 711 mmHg 97%
    03:00 +23°C° 0 mm 1 mps 711 mmHg 98%
    04:00 +23°C° 0 mm 1 mps 711 mmHg 98%
    05:00 +21°C° 0 mm 0 mps 711 mmHg 97%
    06:00 +21°C° 0 mm 0 mps 712 mmHg 96%
    07:00 +21°C° 0 mm 0 mps 712 mmHg 96%
    08:00 +25°C° 0 mm 1 mps 713 mmHg 88%
    09:00 +27°C° 0 mm 1 mps 713 mmHg 80%
    10:00 +28°C° 0 mm 1 mps 714 mmHg 73%
    11:00 +29°C° 0.2 mm 1 mps 713 mmHg 68%
    12:00 +30°C° 0.2 mm 1 mps 713 mmHg 63%
    13:00 +32°C° 0.2 mm 2 mps 712 mmHg 58%
    14:00 +31°C° 0.5 mm 2 mps 712 mmHg 63%
    15:00 +30°C° 0.5 mm 2 mps 711 mmHg 68%
    16:00 +29°C° 0.5 mm 2 mps 710 mmHg 74%
    17:00 +28°C° 0.3 mm 2 mps 711 mmHg 79%
    18:00 +26°C° 0.3 mm 2 mps 711 mmHg 85%
    19:00 +25°C° 0.3 mm 1 mps 711 mmHg 90%
    20:00 +24°C° 0 mm 1 mps 712 mmHg 92%
    21:00 +24°C° 0 mm 1 mps 712 mmHg 93%
    22:00 +24°C° 0 mm 1 mps 713 mmHg 95%
    23:00 +23°C° 0 mm 1 mps 712 mmHg 95%

    16 December, Saturday

    Time Temperature Precipitation Wind Pressure Humidity
    00:00 +23°C° 0 mm 1 mps 712 mmHg 96%
    01:00 +23°C° 0 mm 1 mps 712 mmHg 96%
    02:00 +23°C° 0 mm 1 mps 711 mmHg 97%
    03:00 +23°C° 0 mm 1 mps 711 mmHg 97%
    04:00 +21°C° 0 mm 0 mps 711 mmHg 97%
    05:00 +21°C° 0 mm 0 mps 711 mmHg 97%
    06:00 +21°C° 0 mm 0 mps 712 mmHg 96%
    07:00 +21°C° 0 mm 0 mps 712 mmHg 95%
    08:00 +23°C° 0 mm 0 mps 713 mmHg 87%
    09:00 +27°C° 0 mm 1 mps 713 mmHg 78%
    10:00 +28°C° 0 mm 1 mps 714 mmHg 69%
    11:00 +29°C° 0.3 mm 1 mps 713 mmHg 67%
    12:00 +30°C° 0.3 mm 1 mps 713 mmHg 64%
    13:00 +30°C° 0.3 mm 2 mps 712 mmHg 62%
    14:00 +30°C° 0.6 mm 2 mps 711 mmHg 64%
    15:00 +29°C° 0.6 mm 2 mps 711 mmHg 67%
    16:00 +29°C° 0.6 mm 2 mps 710 mmHg 69%
    17:00 +28°C° 0.1 mm 2 mps 711 mmHg 75%
    18:00 +26°C° 0.1 mm 1 mps 711 mmHg 80%
    19:00 +25°C° 0.1 mm 1 mps 712 mmHg 85%
    20:00 +24°C° 0 mm 1 mps 712 mmHg 88%
    21:00 +24°C° 0 mm 1 mps 712 mmHg 90%
    22:00 +23°C° 0 mm 1 mps 713 mmHg 92%
    23:00 +23°C° 0 mm 1 mps 713 mmHg 93%

    17 December, Sunday

    Time Temperature Precipitation Wind Pressure Humidity
    00:00 +23°C° 0 mm 1 mps 712 mmHg 94%
    01:00 +23°C° 0 mm 1 mps 712 mmHg 94%
    02:00 +23°C° 0 mm 1 mps 712 mmHg 95%
    03:00 +22°C° 0 mm 1 mps 711 mmHg 96%
    04:00 +20°C° 0 mm 0 mps 711 mmHg 96%
    05:00 +20°C° 0 mm 0 mps 711 mmHg 96%
    06:00 +21°C° 0 mm 0 mps 712 mmHg 95%
    07:00 +21°C° 0 mm 0 mps 712 mmHg 94%
    08:00 +23°C° 0 mm 0 mps 713 mmHg 84%
    09:00 +27°C° 0 mm 1 mps 713 mmHg 75%
    10:00 +29°C° 0 mm 1 mps 714 mmHg 65%
    11:00 +30°C° 0.2 mm 1 mps 713 mmHg 61%
    12:00 +31°C° 0.2 mm 1 mps 713 mmHg 58%
    13:00 +32°C° 0.2 mm 1 mps 712 mmHg 54%
    14:00 +31°C° 0.3 mm 1 mps 712 mmHg 57%
    15:00 +31°C° 0.3 mm 2 mps 711 mmHg 59%
    16:00 +30°C° 0.3 mm 2 mps 711 mmHg 61%
    17:00 +28°C° 0.1 mm 2 mps 711 mmHg 69%
    18:00 +27°C° 0.1 mm 2 mps 711 mmHg 77%
    19:00 +25°C° 0.1 mm 1 mps 712 mmHg 85%
    20:00 +24°C° 0 mm 1 mps 712 mmHg 87%
    21:00 +24°C° 0 mm 1 mps 712 mmHg 90%
    22:00 +23°C° 0 mm 1 mps 713 mmHg 92%
    23:00 +23°C° 0 mm 1 mps 712 mmHg 93%

    18 December, Monday

    Time Temperature Precipitation Wind Pressure Humidity
    00:00 +23°C° 0 mm 1 mps 712 mmHg 93%
    01:00 +23°C° 0 mm 1 mps 712 mmHg 94%
    02:00 +23°C° 0 mm 1 mps 712 mmHg 94%
    03:00 +22°C° 0 mm 1 mps 711 mmHg 95%
    04:00 +22°C° 0 mm 1 mps 711 mmHg 95%
    05:00 +20°C° 0 mm 0 mps 712 mmHg 94%
    06:00 +20°C° 0 mm 0 mps 712 mmHg 94%
    07:00 +21°C° 0 mm 0 mps 713 mmHg 93%
    08:00 +23°C° 0 mm 0 mps 713 mmHg 83%
    09:00 +27°C° 0 mm 1 mps 714 mmHg 72%
    10:00 +30°C° 0 mm 1 mps 714 mmHg 62%
    11:00 +31°C° 0.1 mm 1 mps 714 mmHg 57%
    12:00 +32°C° 0.1 mm 1 mps 713 mmHg 53%
    13:00 +33°C° 0.1 mm 1 mps 712 mmHg 49%
    14:00 +32°C° 0.1 mm 1 mps 712 mmHg 53%
    15:00 +31°C° 0.1 mm 1 mps 711 mmHg 57%
    16:00 +30°C° 0.1 mm 2 mps 710 mmHg 61%
    17:00 +28°C° 0.1 mm 1 mps 711 mmHg 68%
    18:00 +27°C° 0.1 mm 1 mps 711 mmHg 76%
    19:00 +25°C° 0.1 mm 1 mps 711 mmHg 83%
    20:00 +25°C° 0.1 mm 1 mps 711 mmHg 86%
    21:00 +24°C° 0.1 mm 1 mps 712 mmHg 89%
    22:00 +24°C° 0.1 mm 1 mps 712 mmHg 92%
    23:00 +23°C° 0 mm 1 mps 712 mmHg 93%
    Show more